Погода Сосново-Озерское

Поиск расширенной информации на нашем сайте:

Полезная информация:

Новости сайта



02.01.2020
Опубликован Долгосрочный прогноз погоды по городам России и ближнего зарубежья на январь 2020 года.
Карты: Прогноз на январь и февраль 2020 года, Сравнение прогнозируемой аномалии приземной температуры воздуха на январь 2020 года по разным моделям.




Погода Сосново-Озерское - сегодня

Время (UTC), дата Ветер
(°,м/с) 
Видим.   Явления Облачность Т
(°С)
Тd
(°С)
f(%) Тe
(°С)
Pmin
(гПа)
dP
(гПа)
Po
(мм)
O2
(г/м3)
Тmin Tmax R s Состояние
почвы
21 23.11.20 270 (З) н/о    10/3 600 м кучево-дожд., средняя, верхняя 
[Cb cap|Ac As|Ci sp]
-4.4 -7.7 78 -8  1024.6  0.6  682  280           
00 24.11.20 290 (З) н/о    1/1 600 м кучево-дожд. 
[Cb cap]
-8.8 -13.1 71 -13  1028.1  1.2  683  285  -9      равномерный
сухой снег
100% 
03 24.11.20 290 (З) 20000 м    1/1 600 м кучево-дожд. 
[Cb cap]
-7 -12.3 66 -11  1028.9  1.5  684  284  -11.3         
06 24.11.20 310 (СЗ) 20000 м    3/3 1000 м 
[Cu hum]
-6.4 -13.2 58 -10  1028.5  0.1  684  283           
09 24.11.20 300 (СЗ) н/о    6/0 средняя, верхняя 
[Ac cuf|Ci sp]
-11.4 -16.4 66 -16  1032  685  289           
12 24.11.20 260 (З) н/о    3/0 верхняя 
[Ci fib]
-10.7 -16.6 62 -15  1033.6  1.6  686  289    -5.6       
15 24.11.20 280 (З) н/о    ясно 
-15.2 -18.4 76 -19  1037.6  1.6  687  294           
18 24.11.20 180 (Ю) н/о    ясно 
-20.9 -23.7 78 -24  1042.1  1.4  688  302           
21 24.11.20 160 (Ю) н/о    ясно 
-23.1 -26 77 -26  1044.2  0.8  689  305           
00 25.11.20 180 (Ю) н/о    ясно 
-24.2 -27.2 76 -29  1046.2  1.2  690  307  -24.5      равномерный
сухой снег
100% 
03 25.11.20 160 (Ю) 20000 м    ясно 
-17.5 -20.7 76 -20  1043.7  0.9  690  299           
06 25.11.20 тихо ()   20000 м    ясно 
-10.5 -16.7 60 -11  1039.6  -0.5  690  290           
09 25.11.20 260 (З) н/о    1/0 средняя 
[Ac lent]
-14.3 -20.7 58 -14  1041.7  0.2  690  295           
12 25.11.20 180 (Ю) н/о    ясно 
-19.7 -23.6 71 -24  1045.1  0.5  690  301    -9.3       
15 25.11.20 190 (Ю) н/о    3/0 верхняя 
[Ci fib]
-22.3 -25.4 76 -27  1046.4  690  305           
18 25.11.20 160 (Ю) н/о    1/0 верхняя 
[Ci fib]
-23.4 -26.4 76 -26  1047  690  306           
21 25.11.20 130 (ЮВ) н/о    1/0 верхняя 
[Ci fib]
-24.5 -27.7 75 -25  1047.2  -0.4  690  307           
00 26.11.20 160 (Ю) н/о    3/0 верхняя 
[Ci fib]
-26.3 -29.6 74 -30  1048.7  0.5  691  310  -26.4      равномерный
сухой снег
100% 
03 26.11.20 200 (Ю) 20000 м    4/0 средняя, верхняя 
[Ac trans|Ci]
-18.8 -22.9 70 -21  1045  0.3  691  300           
06 26.11.20 170 (Ю) 20000 м    3/0 верхняя 
[Ci sp]
-12.9 -17.7 67 -15  1041.5  -0.5  690  293           
09 26.11.20 220 (ЮЗ) н/о    8/0 средняя, верхняя 
[Ac trans|Ci fib]
-14.1 -18.5 69 -16  1042.6  0.4  691  295           
12 26.11.20 200 (Ю) н/о    3/0 верхняя 
[Ci sp]
-17.2 -20.4 76 -17  1045  0.8  691  299    -11.7       
15 26.11.20 240 (ЮЗ) н/о    1/0 верхняя 
[Ci fib]
-19.4 -22 80 -20  1046.2  0.1  691  301           
18 26.11.20 170 (Ю) н/о    1/0 верхняя 
[Ci sp]
-19.4 -22 80 -24  1046.1  -0.3  691  301           
21 26.11.20 180 (Ю) н/о    ясно 
-21.8 -24.6 78 -26  1046.9  -0.2  691  304           
Время (UTC), дата Ветер
(°,м/с) 
Видим.   Явления Облачность Т
(°С)
Тd
(°С)
f(%) Тe
(°С)
Pmin
(гПа)
dP
(гПа)
Po
(мм)
O2
(г/м3)
Тmin Tmax R s Состояние
почвы

Для получения пояснительной информации подведите курсор к названию столбца.

ПОГОДА Сосново-Озерское - архив

Всё, что Вы хотите узнать о погоде Сосново-Озерское - удобно и подробно!

Выберите нужную дату (начиная с 1 января 2019* года) и нажмите кнопку "Найти".
Будут отображены архивные сводки погоды по пункту Сосново-Озерское, начиная с указанной даты.


Отображать данные в формате CSV (для использования в таблицах Excel)


Внимание! Наш архив погоды предназначен исключительно для личного некоммерческого использования в познавательных целях. Если Вам необходимы официальные справки о состоянии погоды (для производственных, юридических, коммерческих и т.п. целей), обращайтесь в органы Росгидромета.

*Примечание: данная дата относится к архиву по метеостанциям СССР (Россия, СНГ, Балтия).
Архив по метеостанциям Зарубежной Европы и Азии (кроме Китая) хранится 10 дней, по другим регионам земного шара (Китай, Африка, Америка, Австралия, Океания) - 1 день.

Сосново-Озерское - район местоположения метеостанции


Название, широта, долгота, высота метеостанции:
Сосново-Озерское 52.5°ш. 111.6°д. 952 м над ур. моря [Российская Федерация]

Дополнительная информация

В oтличие oт бoльшинства пoгoдных сайтoв мы публикуем пoдрoбную метеoинфoрмацию в детальнoм прoфессиoнальнoм фoрмате.

Характеристики температуры и влажнoсти вoздуха измеряются на высoте 2 м в тени вдали oт зданий и деревьев.
Скoрoсть ветра измеряется на высoте 10 м (на урoвне рoста челoвека скoрoсть ветра ниже в 1.5-2 раза). Если метеoстанция нахoдится в гoрoде или в лесу, тo скoрoсть ветра занижена на 2-4 м/с пo сравнению с oткрытым местoм. Скoрoсть ветра над акватoриями крупных рек и oзёр, а также на вершинах хoлмoв на 2-5 м/с выше, чем в oбычных услoвиях.
Атмoсфернoе давление в разных тoчках местнoсти мoжет значительнo oтличаться oт давления на метеoстанции, в зависимoсти oт услoвий рельефа (при пoдъёме на 10 м давление пoнижается примернo на 1 мм рт.ст.).